Theta_e
328 327 326 324 323 322 320 319 318 317 315 313 312 311 310 310 310 310 309 308 307 306 305 304 303 302 301 300 299 296 294 294 294 294 294 293 293 293 293 293 293 295
328 327 326 324 322 320 319 318 317 315 313 312 311 310 310 309 309 308 308 307 306 305 304 303 302 302 301 300 298 296 294 294 294 294 294 294 294 294 293 293 293 294
328 327 325 323 321 319 318 317 315 314 313 311 310 309 308 308 307 308 307 306 305 304 303 303 302 301 300 299 298 296 295 294 295 294 294 294 294 294 294 293 294 295
327 326 324 322 321 320 318 315 314 313 312 311 309 308 307 307 306 307 306 305 305 304 303 302 302 301 300 299 298 296 295 295 295 295 295 295 295 294 294 294 294 295
327 324 322 321 321 319 316 314 314 312 311 310 308 307 307 306 305 306 306 305 304 304 303 302 302 301 299 299 298 296 295 295 295 296 296 297 296 295 295 295 295 295
324 322 321 321 319 317 315 314 313 311 310 309 307 306 306 305 305 305 305 305 304 304 303 302 301 300 299 299 298 296 296 296 296 297 297 297 296 295 296 296 296 295
322 321 321 319 317 315 315 314 311 310 310 308 306 305 305 305 305 304 304 304 304 303 302 301 301 300 300 299 297 296 296 296 297 298 297 297 297 296 296 296 296 295
322 321 319 317 316 315 314 313 310 309 309 307 305 305 305 304 304 304 304 304 303 302 302 301 301 300 300 298 296 296 296 296 297 298 297 298 297 297 297 297 296 296
321 320 318 316 315 314 313 311 309 309 309 307 305 305 304 304 303 303 303 303 303 302 302 301 301 300 300 298 296 296 296 296 297 298 298 298 298 297 297 297 296 296
320 318 316 315 314 312 311 310 309 309 308 305 304 305 304 303 303 303 303 303 302 302 302 301 301 301 300 299 297 298 298 297 298 298 298 298 298 297 297 297 296 296
318 316 315 314 313 311 310 309 308 308 306 304 304 304 303 303 303 302 303 303 302 302 302 301 301 300 300 299 298 298 298 298 298 298 298 298 298 297 297 297 297 296
316 314 313 312 311 310 309 308 308 307 305 303 303 303 302 303 303 302 302 302 302 302 302 301 301 301 300 300 298 298 298 298 298 299 298 298 298 298 297 297 297 297
314 313 312 311 310 309 308 307 307 306 304 303 303 302 302 302 302 303 302 302 302 302 302 302 301 301 300 300 299 299 299 299 298 299 298 298 298 298 297 297 297 297
312 311 310 310 309 308 307 307 306 305 304 303 303 301 300 300 301 302 302 302 302 302 302 302 301 301 300 300 299 299 299 299 299 299 299 298 298 298 298 297 297 297
311 310 309 309 308 307 307 306 305 304 303 302 302 300 298 298 300 301 302 302 302 302 302 301 301 301 300 300 299 299 300 300 299 299 299 298 298 298 298 298 297 297
310 309 308 308 307 306 306 305 304 303 302 302 301 298 295 295 298 300 302 302 302 302 302 302 301 301 300 300 299 299 299 299 299 299 299 299 299 298 298 298 298 297
309 308 307 307 306 306 305 304 303 302 302 301 299 295 293 293 296 299 301 302 302 302 302 302 301 301 300 299 298 299 299 299 299 299 298 299 299 299 299 298 298 298
308 307 307 306 306 306 305 304 303 302 302 300 296 293 293 294 296 299 301 302 302 302 302 301 301 300 299 299 299 299 299 299 299 299 298 299 299 299 299 298 298 298
307 306 306 306 307 306 304 303 302 302 302 300 295 293 293 294 296 299 301 301 301 301 301 301 300 300 299 299 299 299 299 299 299 298 298 299 299 299 298 298 298 298
307 306 306 306 306 304 303 302 302 302 302 299 295 293 294 295 297 299 300 301 301 301 301 300 300 300 299 299 299 299 298 298 298 298 298 298 298 298 297 297 297 296
306 306 306 306 304 302 302 302 302 302 301 298 294 293 294 295 297 299 299 300 300 300 300 299 299 299 298 298 298 298 298 297 297 296 297 297 297 297 297 296 295 294
305 305 305 304 303 302 302 303 302 300 299 297 294 294 294 296 297 298 299 299 299 299 299 298 298 298 298 298 297 296 295 293 293 294 295 296 297 297 296 296 294 293
305 305 304 304 302 302 302 302 301 299 299 297 294 294 295 296 297 297 298 298 298 298 298 298 298 297 296 295 293 292 291 290 291 294 296 296 297 296 296 295 293 293
306 306 305 304 302 301 302 301 300 300 300 297 293 294 295 296 296 297 297 297 298 298 297 297 296 294 292 290 290 289 289 290 292 295 297 297 296 296 295 294 293 293
306 306 306 304 303 303 303 302 301 300 299 295 293 293 294 295 296 296 296 296 297 296 296 293 291 290 289 289 289 290 290 291 294 296 296 296 296 295 294 294 293 294
306 305 305 304 303 303 302 301 301 300 297 293 292 293 294 294 295 295 295 295 294 294 292 290 289 289 290 290 290 290 291 292 295 296 296 296 296 295 295 295 294 295
Wind_Speed
22 22 22 21 20 19 17 15 13 11 10 9 7 7 10 12 13 12 13 13 13 13 15 15 15 16 16 17 18 21 22 24 25 25 26 27 27 27 26 26 25 23
22 22 22 21 20 18 16 14 13 11 10 8 7 9 13 14 14 13 13 14 14 15 15 16 16 16 17 17 18 21 22 24 24 24 26 26 26 26 26 25 24 22
23 23 22 21 20 19 16 14 13 11 10 9 8 11 14 14 14 14 14 15 16 16 16 16 16 16 16 17 18 20 22 23 24 24 25 25 24 24 24 23 23 20
23 23 22 21 20 18 17 16 14 12 10 10 10 13 15 15 14 15 16 16 16 17 17 16 16 16 16 17 18 20 21 22 23 23 23 23 23 23 22 21 20 18
24 24 22 21 20 18 17 16 14 13 12 10 12 14 15 15 15 16 16 17 16 17 17 16 16 16 16 16 17 19 20 21 21 21 20 20 21 22 21 19 18 17
25 24 23 22 20 19 18 16 15 15 13 11 14 16 16 16 16 16 16 17 17 17 17 17 17 17 16 15 17 18 19 19 19 18 18 18 20 21 19 17 17 16
25 25 24 22 21 20 18 17 16 16 13 12 16 17 17 16 16 16 16 17 17 17 17 18 18 17 16 15 16 18 19 18 17 16 16 17 17 18 17 16 15 15
26 25 24 23 23 21 19 19 19 16 12 13 17 18 17 17 16 16 16 17 17 18 18 18 18 17 16 15 17 18 19 18 16 15 15 15 15 15 15 15 15 14
27 26 25 25 24 23 22 21 20 16 13 15 19 19 18 17 16 17 17 17 18 18 18 18 18 17 16 16 17 18 18 17 15 14 14 13 13 13 14 14 14 13
27 27 28 27 26 25 24 23 20 17 15 17 20 19 19 18 17 17 17 18 18 18 18 18 18 18 16 16 17 17 16 15 14 13 12 12 12 12 13 13 12 12
29 29 28 28 28 27 25 23 21 18 17 19 20 19 18 18 18 18 18 18 19 18 19 19 18 17 16 16 16 16 15 14 13 12 11 10 10 11 11 12 11 11
29 29 29 29 28 27 25 24 21 19 20 20 19 18 18 18 18 19 19 19 19 18 18 18 18 18 16 15 15 15 14 13 12 11 10 9 9 9 9 10 10 10
29 29 29 29 28 27 25 23 21 20 21 20 18 17 18 19 20 20 20 19 19 18 18 18 18 18 17 15 14 14 13 12 11 10 9 8 8 7 8 8 8 9
29 29 29 28 28 27 25 23 22 22 22 20 18 17 18 19 21 21 21 20 19 18 18 17 17 18 17 15 14 13 12 10 10 9 8 7 7 6 6 6 6 7
30 29 29 28 27 27 25 23 23 23 21 19 17 17 18 20 21 22 21 21 19 18 18 17 18 18 17 15 14 13 11 10 9 8 7 6 5 4 4 4 3 4
30 30 30 29 28 27 25 24 23 23 21 18 17 16 17 19 21 22 22 21 20 19 19 18 17 17 16 14 13 12 11 10 9 8 6 5 4 3 3 2 2 2
31 31 30 30 29 27 25 25 24 22 20 17 16 16 17 19 21 22 22 21 21 20 19 18 17 17 16 14 12 11 10 9 9 8 7 5 4 3 2 2 2 0
32 32 31 31 29 27 27 26 25 23 20 17 17 17 18 19 21 21 21 21 21 20 19 18 17 16 15 13 11 10 9 8 8 8 7 5 4 2 2 2 2 0
33 33 33 32 30 29 29 28 26 24 20 17 17 18 18 19 20 21 21 21 21 20 19 18 17 16 14 12 10 9 8 7 7 7 6 5 4 3 2 3 2 0
35 35 34 33 31 31 31 30 27 24 21 20 20 19 19 20 20 21 21 21 21 20 19 18 16 15 13 11 10 9 7 7 6 6 6 5 4 3 3 3 2 1
36 36 36 35 34 33 32 30 27 25 23 23 21 20 21 21 21 21 22 21 20 20 19 18 16 14 12 10 9 8 7 6 6 6 6 6 5 5 4 3 2 2
35 36 36 35 35 35 33 31 29 27 26 23 21 21 22 22 21 22 22 21 20 20 19 17 15 13 11 9 8 7 7 7 7 6 6 6 6 6 5 4 2 2
35 36 36 35 36 35 34 32 31 29 26 22 22 23 23 22 22 22 22 21 21 20 19 17 15 13 11 9 8 7 7 7 7 7 7 7 7 7 5 4 2 2
37 38 37 37 37 35 34 33 32 29 25 22 23 24 24 23 23 23 22 21 21 20 18 17 16 14 12 10 8 7 7 8 8 8 8 8 8 7 5 3 2 1
37 38 37 37 37 35 34 33 32 28 25 23 24 24 24 24 23 23 23 21 20 19 17 16 16 14 11 9 8 7 8 9 9 9 9 8 7 6 5 4 2 1
36 37 36 36 36 35 35 34 32 28 25 24 25 25 25 25 24 23 23 21 20 18 16 15 14 13 10 8 8 9 10 10 10 9 9 8 7 6 5 4 2 1
Wind_Direction
187 185 184 182 181 179 172 164 159 153 143 130 126 147 157 155 153 154 151 147 140 134 132 130 127 123 118 111 106 105 104 101 97 94 91 88 86 84 83 82 83 83
189 188 187 185 179 172 166 163 160 153 142 130 133 153 157 155 154 156 154 149 142 137 135 133 130 124 118 113 108 107 106 102 98 95 92 89 86 85 84 83 83 83
190 190 190 185 176 168 164 163 159 151 139 135 147 157 157 156 156 157 156 152 145 140 137 134 130 125 119 114 109 108 109 105 101 97 93 90 88 86 85 83 83 82
191 193 190 182 174 170 166 162 159 152 144 145 155 159 159 157 157 158 157 154 147 141 139 136 132 128 122 115 111 111 112 109 104 100 95 92 89 88 86 83 83 82
193 191 184 178 174 170 167 165 162 157 150 151 158 161 162 160 159 160 159 155 149 143 141 139 136 131 124 116 112 115 117 114 109 103 99 95 91 88 86 84 84 82
187 183 178 176 173 169 167 168 166 160 153 155 163 165 164 163 162 163 162 158 153 148 145 143 140 134 126 117 114 119 122 118 114 109 104 99 93 89 87 86 84 82
181 179 176 174 171 170 171 172 167 160 156 162 167 167 167 168 167 166 166 162 156 152 150 147 144 138 128 119 118 124 127 122 118 115 108 104 97 91 88 86 85 84
179 177 175 174 173 174 175 174 167 160 162 169 169 169 171 172 171 170 169 166 161 157 154 151 148 142 131 122 122 128 131 126 122 119 113 108 102 95 89 87 86 85
176 176 177 177 177 177 176 173 167 162 167 174 173 172 174 174 175 174 172 170 165 160 158 156 152 146 135 125 125 131 133 129 125 123 118 113 106 98 92 87 85 84
176 177 179 179 178 178 176 172 167 165 172 177 175 174 175 176 177 176 175 173 169 165 163 160 157 150 140 132 131 133 135 132 129 126 121 116 110 101 92 87 84 81
178 178 179 179 179 178 175 171 168 169 174 177 175 176 178 178 178 177 178 177 173 169 166 163 161 155 146 141 138 137 137 136 133 130 126 123 117 106 95 87 82 78
179 178 179 180 179 177 174 172 170 172 175 176 177 180 181 181 181 180 180 180 176 173 169 166 165 161 155 149 146 144 143 139 135 134 133 131 126 115 101 88 81 75
178 178 179 179 178 176 173 172 173 175 175 176 180 184 185 185 184 182 182 182 179 175 172 170 169 168 163 158 154 153 150 145 142 143 143 140 134 124 110 95 83 72
178 178 179 178 177 175 174 174 176 176 176 179 182 187 190 189 186 185 183 182 180 177 175 174 173 173 171 166 162 161 158 155 154 156 156 150 140 130 122 109 88 71
177 177 177 177 175 175 176 177 177 177 178 180 183 188 192 191 188 186 182 181 181 179 179 178 177 178 177 172 169 167 165 165 166 168 168 161 152 144 137 127 105 73
176 176 175 175 175 175 177 177 177 178 180 181 184 189 191 188 187 185 182 181 181 181 181 181 182 182 179 174 171 168 169 172 175 177 174 168 165 162 161 159 145 82
175 174 173 174 175 176 177 178 179 179 181 184 185 186 185 184 185 183 182 182 182 182 183 183 184 183 178 175 173 171 173 176 179 182 178 177 178 169 173 183 173 144
173 172 173 174 175 177 179 180 180 180 182 186 186 184 182 182 183 182 181 182 182 183 183 184 184 183 179 179 178 177 181 182 184 186 181 182 188 181 182 179 167 206
173 172 173 175 177 180 181 180 180 179 182 188 189 186 183 180 179 180 180 182 182 182 183 183 183 182 180 181 182 184 187 184 185 187 183 185 187 181 178 167 156 82
173 173 174 176 178 180 179 179 180 181 185 191 191 187 183 178 177 179 180 181 181 181 181 180 180 179 178 180 184 188 190 189 192 194 194 195 191 182 174 163 149 93
174 175 176 176 177 178 178 180 183 185 187 190 189 186 182 177 175 178 180 180 180 180 178 175 175 174 175 180 189 197 204 211 216 215 208 201 193 184 173 161 145 82
174 175 175 176 177 178 180 183 185 186 186 186 187 186 182 178 177 179 180 179 178 178 175 172 172 174 178 189 201 208 213 217 217 207 194 186 182 176 168 161 141 71
175 176 177 177 178 180 181 183 184 185 184 185 187 184 180 178 178 180 181 179 177 177 175 174 175 179 183 190 198 201 201 201 195 182 172 169 171 170 164 156 135 67
180 181 182 181 180 181 183 183 184 184 184 185 186 184 180 179 180 181 183 181 179 178 179 178 178 178 178 179 182 186 186 183 178 169 163 163 164 166 166 161 152 29
183 184 184 184 183 185 185 185 185 184 184 185 186 183 178 177 180 182 183 182 181 181 180 178 174 169 168 170 171 171 169 169 170 167 163 164 163 164 169 174 187 308
182 183 185 185 186 187 186 185 185 184 183 182 183 181 177 176 179 181 181 180 179 176 173 172 167 161 162 165 160 155 153 157 165 167 163 163 164 163 166 170 176 297